Pekan, Malaysia
Current Conditions -  °F | °C
As of 2:00 AM on Saturday 25 Oct 2014 (Local Time) from WMKD Reporting Station
Broken Clouds Broken Clouds  
Wind Chill: 75°   Ceiling: 28000
Heat Index: 75°   Visibility: 6mi
Dew Point: 73°   Wind: 0mph
Humidity: 94%   Direction: NA
Pressure: 29.85"   Gusts: NA
Location:  3.5°N, 103.42°E
Report Text: WMKD 241800Z 00000KT 9999 FEW017CB SCT160 BKN280 24/23 Q1011 NOSIG
Loading
Personal Weather Stations






























Interactive Weather Map
Tropical Storm Tracking
New forecast layout! Learn more

10-Day Weather Forecast

Advertisements
Track Severe Weather on mobile